Dewpoint
7 7 7 7 7 7 7 8 8 9 9 8 8 9 9 10 11 10 11 11 13 14
5 4 5 7 7 7 7 5 4 7 8 8 8 8 9 9 9 9 10 11 12 13
5 5 5 6 5 5 5 6 7 7 7 7 8 9 9 8 8 8 8 8 10 12
6 5 5 4 4 4 5 5 5 6 7 7 8 8 8 8 7 7 8 9 10 9
5 5 4 3 3 4 4 4 4 5 6 7 7 7 7 7 7 7 7 8 9 10
5 5 4 4 4 4 4 4 5 4 5 5 7 7 6 7 7 8 8 8 9 9
6 5 5 5 5 5 5 5 5 5 5 6 6 5 4 3 3 4 6 8 9 11
6 6 6 6 6 6 5 5 5 4 4 4 4 3 2 3 5 8 10 11 12 13
6 7 7 6 6 5 5 5 5 5 5 4 3 4 8 10 11 11 11 13 12 13
4 6 6 6 6 5 5 5 5 5 4 4 4 6 9 11 11 12 13 13 14 12
1 2 5 6 6 6 5 5 5 5 4 4 3 6 9 10 10 12 11 10 10 11
-1 -1 2 4 5 5 6 5 5 4 3 3 3 4 7 9 8 9 8 8 7 8
-1 -1 0 1 1 3 4 5 4 3 2 3 3 3 5 7 8 9 8 8 8 11
-1 -0 -0 0 1 0 2 4 4 4 4 2 1 1 7 9 9 9 9 9 10 9
Wind_Speed
6 5 5 6 7 7 8 9 10 9 11 11 11 10 10 10 10 10 10 12 10 11
4 5 5 7 7 7 8 10 11 12 12 12 11 11 11 11 12 11 11 12 12 12
4 4 5 7 8 9 10 11 11 12 12 13 13 12 11 12 12 13 13 12 13 13
5 6 6 7 9 10 11 11 12 13 14 14 14 13 13 14 15 15 15 14 14 17
7 7 8 9 10 10 12 12 13 13 14 14 14 14 15 15 15 16 17 16 15 17
9 9 10 11 11 12 13 14 14 14 15 16 15 15 15 16 18 17 18 18 18 17
11 11 11 11 12 13 13 14 15 15 16 16 16 17 17 19 20 19 19 18 19 19
12 11 11 12 13 14 14 15 15 16 16 17 16 16 17 18 20 20 21 21 20 21
12 12 13 14 15 15 15 16 16 17 17 17 16 20 23 23 22 23 23 23 22 22
14 15 16 16 15 16 16 16 17 18 18 19 19 22 24 25 22 22 21 22 21 23
16 18 17 16 17 17 17 17 18 18 19 20 19 23 25 25 23 21 23 23 24 24
17 20 18 17 18 17 17 18 18 19 20 20 20 23 25 24 22 22 24 23 24 24
18 19 19 20 18 16 16 18 17 20 20 22 23 25 27 26 21 23 22 23 24 26
18 19 18 18 15 16 17 17 17 20 19 21 22 24 27 27 23 22 21 21 20 19
Wind_Direction
35 17 359 347 337 330 329 328 332 339 333 330 327 323 320 311 305 301 298 293 288 286
17 355 336 329 321 320 321 321 324 322 319 318 313 311 310 301 299 296 292 287 286 281
328 325 318 316 315 315 315 314 311 311 309 307 303 300 297 294 293 293 290 286 284 282
312 316 313 310 309 306 304 302 302 300 298 295 294 292 290 287 287 284 285 283 282 283
301 306 301 298 298 299 295 294 291 290 288 287 286 286 283 283 283 281 280 281 278 278
286 284 286 287 289 288 287 288 288 287 285 285 284 285 283 279 279 275 274 275 274 275
275 276 278 281 282 282 282 282 281 279 279 279 280 281 280 278 275 273 270 268 268 270
272 272 271 273 275 275 274 273 274 276 276 276 276 275 273 272 272 272 272 269 269 270
268 266 264 266 268 271 273 272 272 272 274 277 275 277 279 280 278 276 275 275 273 271
260 261 259 261 262 264 266 269 268 269 272 273 273 276 280 279 275 272 270 272 276 278
261 264 260 256 258 261 261 261 265 267 269 272 275 278 281 280 279 276 276 275 273 272
262 266 260 254 252 255 259 259 260 265 269 269 272 277 281 279 278 276 275 276 273 271
254 256 254 254 251 250 252 258 262 267 267 272 279 282 281 281 277 275 272 270 268 267
249 251 250 251 247 252 251 259 262 265 268 273 274 275 275 274 271 268 271 269 268 268